VE3MNX Weather Reports


Display with metric or nautical units.
time (UTC)temp
F
wind
direction
speed
MPH
gust
MPH
rain 1hr
in
rain 24hr
in
rain mn
in
humidity
%
barometer
mb
20260510163938 55 315 6.0 7.0 0.00 0.15 0.00 52 1016.6
20260510162439 55 313 7.0 9.0 0.00 0.15 0.00 54 1016.3
20260510160938 54 286 3.0 12.0 0.00 0.15 0.00 49 1016.3
20260510155438 55 295 7.0 9.0 0.00 0.15 0.00 55 1016.3
20260510153938 54 341 3.0 6.0 0.00 0.15 0.00 60 1016.3
20260510152439 54 298 6.0 7.0 0.00 0.15 0.00 60 1016.3
20260510150940 54 308 5.0 7.0 0.00 0.15 0.00 63 1015.9
20260510145439 53 309 3.0 5.0 0.00 0.15 0.00 67 1015.9
20260510143938 53 346 3.0 6.0 0.00 0.15 0.00 67 1015.8
20260510142439 53 341 1.0 3.0 0.00 0.15 0.00 69 1015.6
20260510140938 52 333 3.0 5.0 0.00 0.15 0.00 69 1015.6
20260510135439 50 334 2.0 7.0 0.00 0.15 0.00 68 1015.9
20260510133938 50 310 3.0 5.0 0.00 0.15 0.00 71 1015.6
20260510132438 49 340 6.0 7.0 0.00 0.15 0.00 71 1015.6
20260510130938 49 322 7.0 8.0 0.00 0.15 0.00 71 1015.2
20260510125440 48 339 3.0 5.0 0.00 0.15 0.00 74 1015.6
20260510123938 47 334 3.0 5.0 0.00 0.15 0.00 75 1015.2
20260510122438 47 335 3.0 5.0 0.00 0.15 0.00 79 1014.9
20260510120938 46 330 3.0 6.0 0.00 0.15 0.00 79 1014.9
20260510115438 45 338 3.0 5.0 0.00 0.15 0.00 82 1014.6
20260510113938 44 336 5.0 6.0 0.00 0.15 0.00 84 1014.6
20260510112440 43 335 3.0 5.0 0.00 0.15 0.00 84 1014.2
20260510110939 42 338 5.0 6.0 0.00 0.15 0.00 85 1013.9
20260510105438 41 341 3.0 6.0 0.00 0.15 0.00 87 1013.9
20260510103938 40 333 5.0 6.0 0.00 0.15 0.00 89 1013.8
20260510102440 39 337 6.0 7.0 0.00 0.15 0.00 91 1013.4
20260510100939 39 339 6.0 7.0 0.00 0.15 0.00 91 1013.2
20260510095438 40 344 5.0 6.0 0.00 0.15 0.00 90 1012.9
20260510093938 41 336 3.0 7.0 0.00 0.15 0.00 88 1012.9
20260510092439 41 334 5.0 7.0 0.00 0.15 0.00 89 1012.5
20260510090941 41 333 3.0 6.0 0.00 0.15 0.00 88 1012.2
20260510085439 42 336 3.0 5.0 0.00 0.15 0.00 88 1011.9
20260510083939 42 339 3.0 5.0 0.00 0.15 0.00 87 1011.5
20260510082441 43 327 3.0 5.0 0.00 0.15 0.00 84 1011.2
20260510080939 44 345 1.0 5.0 0.00 0.15 0.00 82 1011.2
20260510075439 44 332 3.0 5.0 0.00 0.15 0.00 81 1010.8
20260510073939 45 341 3.0 6.0 0.00 0.15 0.00 82 1010.2
20260510072439 45 26 3.0 7.0 0.00 0.15 0.00 85 1009.8
20260510070939 47 344 2.0 6.0 0.00 0.15 0.00 83 1009.5
20260510065438 48 75 3.0 6.0 0.00 0.15 0.00 81 1009.5
20260510063938 47 327 3.0 6.0 0.00 0.15 0.00 81 1008.8
20260510062438 48 336 5.0 6.0 0.00 0.15 0.00 79 1008.8
20260510060938 49 0 2.0 3.0 0.00 0.15 0.00 79 1008.8
20260510055439 49 341 2.0 5.0 0.00 0.15 0.00 78 1008.5
20260510053938 49 354 2.0 7.0 0.00 0.15 0.00 76 1008.5
20260510052439 50 356 2.0 6.0 0.00 0.15 0.00 77 1008.5
20260510050938 49 3 5.0 9.0 0.00 0.15 0.00 78 1007.8
20260510045438 50 342 6.0 7.0 0.00 0.15 0.00 79 1007.8
20260510043938 50 3 5.0 9.0 0.00 0.15 0.00 78 1007.5
20260510042438 51 328 7.0 8.0 0.00 0.15 0.00 79 1007.5
20260510040938 51 336 5.0 8.0 0.00 0.15 0.00 77 1007.5
20260510035438 52 80 6.0 9.0 0.02 0.15 0.15 77 1007.1
20260510033938 52 45 5.0 9.0 0.02 0.15 0.15 78 1006.8
20260510032441 54 344 5.0 9.0 0.02 0.15 0.15 77 1006.1
20260510030939 57 340 5.0 7.0 0.01 0.14 0.14 91 1005.4
20260510025438 56 341 5.0 6.0 0.00 0.13 0.13 90 1004.7
20260510023938 57 339 2.0 5.0 0.00 0.13 0.13 88 1005.1
20260510022439 58 345 2.0 5.0 0.00 0.13 0.13 86 1004.1
20260510020940 57 301 2.0 3.0 0.00 0.13 0.13 89 1004.4
20260510015440 58 254 8.0 10.0 0.00 0.13 0.13 89 1004.4
20260510013938 58 299 2.0 5.0 0.00 0.13 0.13 86 1003.7
20260510012438 58 294 5.0 6.0 0.00 0.13 0.13 86 1003.4
20260510010938 58 292 5.0 9.0 0.00 0.13 0.13 85 1003.1
20260510005439 58 299 5.0 6.0 0.00 0.13 0.13 86 1003.0
20260510003937 59 295 6.0 7.0 0.00 0.13 0.13 84 1003.0
20260510002547 60 301 7.0 8.0 0.00 0.13 0.13 83 1003.0
20260510001047 59 292 2.0 3.0 0.00 0.13 0.13 84 1002.7
20260509235438 59 298 7.0 8.0 0.00 0.13 0.13 83 1002.4
20260509233938 56 265 8.0 12.0 0.00 0.13 0.13 89 1002.4
20260509232438 57 268 6.0 13.0 0.00 0.13 0.13 88 1002.0
20260509230938 56 268 6.0 10.0 0.00 0.13 0.13 90 1002.0
20260509225438 57 263 6.0 10.0 0.00 0.13 0.13 89 1001.7
20260509223938 58 250 7.0 12.0 0.00 0.13 0.13 86 1001.7
20260509222439 62 255 5.0 7.0 0.01 0.13 0.13 79 1001.4
20260509220940 61 294 3.0 7.0 0.02 0.13 0.13 86 1001.4
20260509215438 58 269 5.0 7.0 0.12 0.13 0.13 91 1001.4
20260509213937 56 266 6.0 10.0 0.13 0.13 0.13 93 1001.4
20260509212439 54 286 5.0 7.0 0.12 0.12 0.12 95 1001.7
20260509210938 52 299 5.0 8.0 0.11 0.11 0.11 96 1001.4
20260509205438 59 355 14.0 18.0 0.01 0.01 0.01 86 1002.0
20260509203937 56 288 6.0 7.0 0.00 0.00 0.00 93 1001.4
20260509202438 54 232 10.0 14.0 0.00 0.00 0.00 95 1000.0
20260509200937 54 257 7.0 9.0 0.00 0.00 0.00 95 1001.0
20260509195438 55 232 5.0 9.0 0.00 0.00 0.00 94 1001.4
20260509193938 57 271 9.0 10.0 0.00 0.00 0.00 90 1001.4
20260509192438 56 260 8.0 13.0 0.00 0.00 0.00 92 1001.4
20260509190938 56 240 8.0 10.0 0.00 0.00 0.00 92 1001.4
20260509185439 56 254 9.0 10.0 0.00 0.00 0.00 92 1001.7
20260509183937 54 257 7.0 10.0 0.00 0.00 0.00 94 1002.4
20260509182438 54 238 5.0 6.0 0.00 0.00 0.00 95 1002.4
20260509180938 54 243 6.0 8.0 0.00 0.00 0.00 95 1002.4
20260509175438 55 236 8.0 12.0 0.00 0.00 0.00 95 1002.7
20260509173938 54 231 7.0 10.0 0.00 0.00 0.00 95 1002.7
20260509172438 56 247 8.0 13.0 0.00 0.00 0.00 93 1002.4
20260509170938 56 227 7.0 10.0 0.00 0.00 0.00 94 1002.4
20260509165437 55 234 6.0 8.0 0.00 0.00 0.00 95 1002.7